Flag for Trinidad and Tobago Weather past 2 weeks in Port of Spain, Trinidad and Tobago

Now
79 °F

Passing clouds.


Feels Like: 82 °F
Forecast: 80 / 89 °F
Wind: No wind

Location: Piarco International Airport - Trinidad

Current Time: Aug 4, 2015 at 6:01:42 AM

Latest Report: Aug 4, 2015 at 5:00 AM


Visibility: N/A

Pressure: 29.92 "Hg

Humidity: 89%

Dew point: 75 °F

Location of Port of SpainLocation

Historic Weather in Port of Spain — Graph

°F

Port of Spain temperature yesterday

Maximum temperature yesterday: 90 °F (at 11:00 AM)
Minimum temperature yesterday: 77 °F (at 3:00 AM)
Average temperature yesterday: 83 °F

Past Weeks' High & Low Weather Summary

 TemperatureHumidityPressure
High93 °F (Jul 31, 2:00 PM)100% (Jul 20, 5:00 AM)30.04 "Hg (Jul 20, 5:00 AM)
Low72 °F (Aug 2, 4:00 AM)49% (Jul 31, 2:00 PM)29.83 "Hg (Aug 2, 3:00 PM)
Average82 °F78%29.94 "Hg
* Reported Jul 20 4:00 AM — Aug 4 4:00 AM, Port of Spain, Weather by CustomWeather, © 2015

Note: Actual official high and low records may vary slightly from our data, if they occured in-between our weather recording intervals... More about our weather records

Advertising

Port of Spain weather history for previous 24 hours

 ConditionsComfort  
Time TempWeatherWind HumidityBarometerVisibility
4:00 AM
Tue, Aug 4
79 °FPassing clouds.No wind89%29.92 "HgN/A
3:00 AM79 °FPassing clouds.No wind89%29.92 "HgN/A
2:00 AM79 °FPassing clouds.No wind89%29.92 "HgN/A
1:00 AM79 °FPassing clouds.No wind89%29.92 "HgN/A
12:00 AM79 °FPassing clouds.No wind89%29.95 "HgN/A
11:00 PM
Mon, Aug 3
79 °FPassing clouds.No wind89%29.95 "HgN/A
10:00 PM81 °FPassing clouds.No wind84%29.95 "HgN/A
9:00 PM81 °FPassing clouds.No wind84%29.95 "HgN/A
8:00 PM81 °FPassing clouds.3 mph84%29.92 "HgN/A
7:00 PM82 °FPassing clouds.8 mph79%29.89 "HgN/A
6:00 PM86 °FPassing clouds.14 mph66%29.89 "HgN/A
5:00 PM88 °FScattered clouds.15 mph62%29.86 "HgN/A
4:00 PM90 °FScattered clouds.16 mph59%29.86 "HgN/A
3:00 PM90 °FPartly sunny.15 mph59%29.89 "HgN/A
2:00 PM90 °FPartly sunny.15 mph63%29.89 "HgN/A
1:00 PM90 °FScattered showers. Partly sunny.12 mph63%29.89 "HgN/A
12:00 PM88 °FScattered showers. Partly sunny.9 mph66%29.92 "HgN/A
11:00 AM90 °FScattered showers. Partly sunny.8 mph67%29.92 "HgN/A
10:00 AM86 °FScattered showers. Partly sunny.7 mph70%29.95 "Hg2 mi
9:00 AM86 °FScattered showers. Scattered clouds.6 mph75%29.92 "HgN/A
8:00 AM84 °FScattered showers. Passing clouds.6 mph74%29.92 "HgN/A
7:00 AM79 °FScattered showers. Scattered clouds.No wind89%29.92 "HgN/A
6:00 AM77 °FPassing clouds.No wind94%29.89 "HgN/A
Weather by CustomWeather, © 2015

See weather overviewHow to use our weather pages